Location: Limoges
(45.8354°N, 1.2645°E)
Time: 20:43:26
(UTC+02:00)

Courier 1B Rocket - Pass Details

Date: 29 February 2024
Orbit: 920 x 1201 km, 28.2° (Epoch: 20 April)

Event Time Altitude Azimuth Distance (km) Brightness Sun altitude
Rises 03:26:40 0° 232° (SW) 3,650 - -41.6°
Reaches altitude 10° 03:30:34 10° 210° (SSW) 2,659 - -41.1°
Maximum altitude 03:34:00 15° 177° (S) 2,282 - -40.7°
Drops below altitude 10° 03:37:23 10° 144° (SE) 2,611 - -40.2°
Exits shadow 03:40:00 - 127° (SE) 3,225 7.9 -39.8°
Sets 03:41:09 0° 122° (ESE) 3,545 8.2 -39.7°
